Regional Weather Roundup
Issued by NWS

Home | Current Version | Previous Version | Graphics & Text | Print | Product List | Glossary On
Versions: 1 2 3 4 5 6 7 8 9 10 11 12 13 14 15 16 17 18 19 20 21 22 23 24 25 26 27 28 29 30 31 32 33 34 35 36 37 38 39 40 41 42 43 44 45 46 47 48 49 50
569
ASUS44 KJAN 260010
RWRMS

MISSISSIPPI HOURLY WEATHER ROUNDUP
NATIONAL WEATHER SERVICE JACKSON MS
700 PM CDT FRI JUL 25 2014

NOTE: "FAIR: INDICATES FEW OR NO CLOUDS BELOW 12,000 FEET WITH NO
SIGNIFICANT WEATHER AND/OR OBSTRUCTIONS TO VISIBILITY.

MSZ001>002-007>008-010>013-018>021-025>028-034>036-260100-
NORTHWEST MISSISSIPPI

CITY           SKY/WX    TMP DP  RH WIND       PRES   REMARKS
CLARKSDALE     FAIR      82  68  61 CALM      29.99F
CLEVELAND      FAIR      83  72  68 CALM      29.99S
GREENWOOD      SUNNY     84  66  54 CALM      30.00S
6HR MIN TEMP:  83; 6HR MAX TEMP:  87;

GREENVILLE     MOSUNNY   85  71  63 CALM      29.98F HX  90
6HR MIN TEMP:  84; 6HR MAX TEMP:  89;

GRENADA        FAIR      82  64  54 CALM      30.00F
OLIVE BRANCH   PTSUNNY   81  66  61 E6        30.01S
OXFORD         FAIR      81  63  54 CALM      30.01F
TUNICA         CLEAR     81  66  61 CALM      29.99F
$$

MSZ003>006-009-014>017-022>024-029>033-037>039-260100-
NORTHEAST MISSISSIPPI

CITY           SKY/WX    TMP DP  RH WIND       PRES   REMARKS
BELMONT        FAIR      80  68  67 SW3       30.00F
COLUMBUS AFB   SUNNY     83  62  48 N2        30.00F
6HR MIN TEMP:  82; 6HR MAX TEMP:  86;

CORINTH        FAIR      81  64  57 CALM      30.00S
GOLDN TRIANGLE SUNNY     84  64  51 N5        30.01S
STARKVILLE     FAIR      81  63  54 CALM      30.00F
TUPELO         SUNNY     83  62  49 CALM      30.00F
6HR MIN TEMP:  82; 6HR MAX TEMP:  86;

$$

MSZ040-058-260100-
CENTRAL MISSISSIPPI

CITY           SKY/WX    TMP DP  RH WIND       PRES   REMARKS
JACKSON INTL   MOSUNNY   87  71  58 N6        29.99S HX  93
6HR MIN TEMP:  87; 6HR MAX TEMP:  91;

JACKSON HAWKNS MOSUNNY   87  69  54 NW3       29.99F HX  91
6HR MIN TEMP:  86; 6HR MAX TEMP:  90;

MERIDIAN KEY   MOSUNNY   86  71  60 N6        29.97F HX  91
6HR MIN TEMP:  86; 6HR MAX TEMP:  92;

MERIDIAN NAS   MOSUNNY   85  70  60 N6        29.98F
6HR MIN TEMP:  85; 6HR MAX TEMP:  91;

RAYMOND        FAIR      86  81  84 CALM      29.99S HX 102
VICKSBURG      MOSUNNY   85  75  72 E3        29.97F HX  93
6HR MIN TEMP:  85; 6HR MAX TEMP:  91;

$$

MSZ059>079-260100-
SOUTH MISSISSIPPI

CITY           SKY/WX    TMP DP  RH WIND       PRES   REMARKS
BROOKHAVEN     FAIR      86  75  70 CALM      30.01S HX  95
COLUMBIA       FAIR      86  75  70 N5        29.96S HX  95
HATTIESBURG    MOSUNNY   90  72  55 N7        29.97S HX  97
6HR MIN TEMP:  88; 6HR MAX TEMP:  93;

MCCOMB         MOSUNNY   88  73  61 N3        29.99R HX  95
6HR MIN TEMP:  88; 6HR MAX TEMP:  93;

NATCHEZ        MOSUNNY   86  75  70 N3        29.99S HX  95
6HR MIN TEMP:  86; 6HR MAX TEMP:  90;

PINE BELT      SUNNY     88  72  58 NW5       29.99F HX  94
6HR MIN TEMP:  88; 6HR MAX TEMP:  93;

$$

MSZ080>082-260100-
COASTAL MISSISSIPPI

CITY           SKY/WX    TMP DP  RH WIND       PRES   REMARKS
BAY ST LOUIS   SUNNY    N/A N/A N/A CALM      29.97S
BILOXI         PTSUNNY   81  76  84 SW8       29.98S
6HR MIN TEMP:  78; 6HR MAX TEMP:  91; 6HR PCP: TRACE;

PASCAGOULA     MOCLDY    83  77  82 SW5       29.97F HX  92
6HR MIN TEMP:  74; 6HR MAX TEMP:  92; 6HR PCP:  0.65;

GULFPORT       CLOUDY    85  75  72 SE5       29.97S HX  93
6HR MIN TEMP:  82; 6HR MAX TEMP:  94; 6HR PCP:  0.05;

$$



USA.gov is the U.S. government's official web portal to all federal, state and local government web resources and services.